Wind_Speed
70 68 68 66 65 61 57 47 40 34 31 43 39 47 38 40 43 42 38 35 30 26 30 34 28 29 30 28 29 39 45 50 53 55 57 53 52 53 57 59 64 69 70 69
82 78 77 73 64 62 59 47 39 39 32 45 44 45 40 39 41 42 39 37 37 29 26 30 30 31 31 30 28 32 37 42 44 47 48 50 53 57 58 59 60 62 64 65
85 83 83 84 64 58 55 53 44 46 40 41 42 40 40 41 40 40 36 34 35 35 25 24 30 32 31 33 34 34 35 38 41 42 44 47 49 51 51 54 56 58 59 61
87 87 93 72 70 67 64 56 50 47 41 37 41 46 41 45 36 33 33 38 36 35 31 26 24 25 26 28 30 32 33 36 38 41 45 50 53 54 56 58 59 61 62 64
96 92 88 79 72 73 69 61 55 50 44 40 42 47 42 46 37 34 32 36 37 32 25 19 16 18 22 25 28 31 32 34 38 42 47 51 54 57 59 59 61 62 62 64
99 96 91 81 79 81 75 66 63 60 53 54 51 38 45 45 42 40 42 43 40 36 29 22 20 22 25 25 27 29 30 37 40 43 45 47 50 51 53 55 57 59 60 60
101 94 91 87 86 83 80 65 67 66 60 48 43 41 49 45 42 42 45 46 45 38 34 30 26 30 29 32 35 35 40 45 46 50 52 53 53 54 55 57 58 57 58 61
98 95 89 89 92 88 75 73 75 69 62 54 45 46 53 50 43 46 49 49 48 45 40 39 39 43 44 45 44 47 49 50 53 55 57 57 56 55 58 60 61 62 62 63
81 78 81 87 87 86 86 83 81 71 61 53 47 50 51 50 49 52 51 47 49 52 47 47 48 49 52 53 53 53 56 58 58 59 57 61 59 60 58 57 58 60 59 61
71 73 67 68 73 79 81 80 74 68 63 54 51 51 52 56 51 47 46 49 49 53 50 52 55 57 58 58 59 62 62 61 63 64 65 66 68 68 65 65 66 64 68 74
63 61 60 55 58 61 67 67 63 58 58 56 56 53 55 56 52 52 48 50 52 57 58 57 58 59 59 61 63 65 69 69 69 71 69 72 74 77 69 68 69 71 75 80
59 56 51 49 49 49 55 54 53 54 57 60 57 54 53 54 53 54 54 54 57 62 64 62 61 62 62 63 67 70 71 71 74 74 75 79 79 81 80 79 77 77 80 82
47 44 45 51 53 56 51 57 53 56 62 56 59 57 54 54 55 56 58 60 62 67 68 67 66 66 67 68 71 73 74 77 77 77 81 84 85 87 86 87 88 87 87 87
44 43 51 57 58 55 49 56 60 58 55 64 59 59 61 57 59 61 61 64 66 70 70 71 71 72 70 73 75 76 80 81 82 83 85 89 91 94 94 95 96 95 96 94
47 48 56 60 62 59 61 62 59 60 59 62 59 57 60 61 65 65 64 67 70 73 72 75 75 76 76 79 80 81 85 88 88 88 90 94 96 99 99 99 100 101 101 101
45 50 54 57 63 63 64 65 65 65 62 63 59 60 65 66 67 69 69 72 77 78 77 77 79 80 82 84 86 88 91 92 92 93 95 100 102 105 106 105 105 106 106 107
49 54 58 58 65 64 62 64 67 68 67 65 66 68 69 71 76 76 78 79 81 78 78 80 84 84 85 89 90 92 93 95 98 99 102 108 110 109 109 107 107 110 113 115
53 54 58 62 64 65 65 66 65 66 67 69 69 71 72 74 76 78 81 81 84 82 84 86 87 90 93 93 94 94 97 99 101 105 111 116 113 110 111 110 113 116 118 122
51 53 57 59 60 63 66 67 68 69 70 72 74 76 78 75 77 78 79 82 84 87 88 91 95 96 97 96 97 99 101 102 107 113 116 113 112 113 113 115 117 119 124 125
57 58 59 60 61 62 64 66 69 71 70 71 73 74 75 78 80 81 83 85 90 94 95 98 100 100 99 100 102 104 106 111 116 117 115 116 114 114 116 117 121 123 127 128
60 63 66 66 66 67 68 67 69 69 69 73 76 79 82 84 86 88 90 95 99 102 101 102 102 101 102 105 107 112 116 116 116 116 116 114 116 119 120 122 125 126 127 127
64 66 68 67 68 71 74 76 76 76 77 79 81 84 86 89 93 97 100 101 100 100 100 100 103 106 109 112 114 115 115 116 116 116 116 117 118 119 120 123 125 124 122 118
67 69 70 71 72 72 73 76 80 83 84 86 89 91 90 89 90 90 91 92 95 98 102 106 110 113 114 114 116 116 116 117 117 118 118 118 119 121 120 120 118 115 114 109
68 69 69 70 73 75 78 79 80 81 82 81 82 84 87 88 89 92 95 98 102 106 109 110 110 113 115 115 116 117 117 116 116 116 117 117 116 117 114 112 110 106 104 103
70 71 73 74 75 76 77 79 82 84 85 86 86 88 92 94 97 99 101 102 104 106 108 111 113 115 115 114 114 113 113 113 114 114 114 113 110 108 106 102 100 97 95 93
74 75 76 77 79 80 81 82 84 86 88 91 93 94 95 96 98 101 104 104 105 107 109 110 109 109 110 110 111 110 110 109 109 107 105 103 102 99 97 95 93 90 87 84
79 80 81 82 83 85 87 89 90 92 93 94 97 99 99 98 98 99 100 101 102 102 103 103 104 105 105 105 105 105 104 101 100 99 97 95 92 90 88 86 84 80 77 75
Wind_Direction
238 242 250 253 255 258 266 276 279 276 291 299 296 309 298 304 313 324 323 323 323 319 293 289 281 274 268 258 243 240 245 248 250 251 254 256 254 262 266 267 268 268 270 274
239 237 246 249 253 256 262 269 273 276 281 278 291 303 291 303 310 316 315 318 320 315 297 292 290 281 276 270 263 257 253 253 255 257 260 261 262 265 269 271 275 277 278 280
237 242 244 244 250 258 262 266 269 280 278 281 292 289 285 295 297 309 314 314 309 309 315 303 291 284 283 281 276 272 272 273 272 273 273 273 273 273 275 278 280 282 283 284
234 240 242 244 251 260 260 265 266 272 276 276 285 289 281 284 285 299 312 318 307 308 301 297 299 301 307 301 294 290 287 285 283 282 281 282 283 286 287 287 287 287 287 289
233 236 242 244 249 257 256 260 267 271 272 269 276 282 278 282 286 292 297 310 309 302 298 299 311 323 325 310 304 301 303 307 302 295 290 289 289 288 288 285 285 286 286 286
239 237 237 245 249 255 254 256 264 268 269 271 278 273 272 276 276 289 291 302 310 302 293 301 302 320 322 326 328 318 316 328 320 308 298 293 289 288 289 288 286 287 290 291
238 238 238 241 248 253 253 259 262 264 264 267 266 259 269 272 279 285 288 294 303 301 296 291 303 311 317 320 323 327 328 330 326 329 322 312 302 298 295 295 296 295 292 292
237 238 239 242 247 250 252 255 256 260 266 267 254 256 266 268 277 286 289 293 300 306 302 307 308 311 315 315 315 318 320 321 327 326 329 321 308 300 296 296 294 293 294 294
243 241 238 244 245 248 253 256 260 262 261 265 244 258 259 263 272 280 284 290 297 303 304 304 303 304 305 308 310 312 315 316 318 320 318 326 318 306 299 298 294 293 294 300
240 244 243 240 243 246 251 253 258 262 266 256 241 251 258 261 270 282 279 288 294 297 299 298 299 299 301 304 305 308 309 311 313 315 317 318 322 322 306 300 296 291 296 302
233 237 239 240 243 247 251 252 254 251 245 238 239 247 261 267 268 277 281 287 287 289 295 299 298 299 299 301 304 306 307 310 311 311 313 314 319 317 318 306 298 297 298 303
228 231 233 230 233 233 239 241 244 237 233 236 238 248 255 262 269 273 278 283 284 287 294 298 296 298 297 299 302 304 305 307 309 308 310 314 315 315 314 314 310 306 306 309
223 226 225 227 223 222 225 230 232 235 230 238 241 244 255 264 269 273 276 281 284 286 292 295 295 296 295 297 299 303 305 307 306 306 309 311 311 313 313 313 313 311 311 313
217 213 213 219 219 219 228 235 243 246 246 242 249 254 253 261 267 271 276 279 282 285 289 293 293 296 295 296 299 302 303 306 306 305 306 308 311 313 312 311 311 312 312 311
215 208 210 216 219 219 222 229 238 241 245 248 251 251 257 265 268 272 274 277 281 284 288 291 293 296 294 298 300 301 303 305 305 304 305 308 309 310 308 308 310 310 312 314
213 211 215 219 221 223 225 234 242 248 250 252 258 260 262 263 267 271 276 279 281 284 287 290 292 294 294 297 300 301 302 303 304 303 303 306 308 308 308 310 312 314 313 313
213 214 218 223 223 225 230 236 241 246 251 254 258 264 267 268 271 272 277 279 280 283 287 290 291 292 294 296 298 299 301 301 302 302 304 306 307 306 308 311 310 310 310 310
219 222 226 227 227 231 235 240 245 250 252 252 257 261 263 266 269 271 274 277 282 285 286 290 292 292 293 295 298 299 299 299 301 302 303 302 305 309 309 309 308 308 309 309
222 228 231 232 234 238 242 247 250 255 258 260 260 263 266 269 272 276 277 280 282 285 287 288 290 292 293 295 296 296 297 298 297 299 302 306 306 306 306 306 306 306 305 305
228 231 233 237 241 243 244 249 251 253 256 258 261 265 268 272 273 274 276 278 280 283 285 287 288 290 291 292 293 295 295 296 299 303 304 303 304 304 304 304 305 305 304 302
234 236 238 239 242 246 249 252 255 258 260 262 266 269 269 269 270 275 277 279 281 283 285 286 286 287 289 291 292 293 295 297 299 299 301 302 302 302 303 303 301 301 302 303
235 239 241 244 247 248 250 252 255 257 260 262 264 267 269 271 273 275 276 279 280 282 284 284 286 288 289 290 293 295 296 298 299 299 299 300 301 300 299 300 302 301 301 302
240 242 245 248 253 255 256 256 257 258 261 263 267 269 271 273 275 277 278 279 281 283 285 287 287 288 290 292 294 296 297 297 298 298 297 297 297 298 299 300 301 301 302 304
244 248 253 256 256 257 258 261 262 263 264 268 270 272 274 276 277 278 279 281 283 284 286 288 289 290 292 293 293 294 295 296 295 296 297 298 299 299 300 301 302 303 303 304
251 255 258 261 262 263 264 265 266 268 270 272 274 275 277 278 278 280 281 282 283 284 286 288 289 290 291 291 292 293 293 295 296 297 298 299 300 300 301 302 303 303 303 303
255 258 261 264 265 266 268 270 270 272 272 274 276 277 278 279 281 283 284 285 284 284 285 287 287 289 290 292 293 294 295 296 296 297 298 300 300 301 302 302 303 303 303 303
261 263 266 268 270 270 271 272 274 275 276 277 278 279 281 281 281 281 282 284 285 286 288 289 290 291 292 293 294 295 296 297 298 299 300 300 301 302 302 302 303 303 303 304
Height
10513 10517 10517 10527 10534 10543 10548 10552 10554 10552 10556 10548 10553 10558 10557 10551 10548 10544 10541 10538 10536 10536 10532 10528 10531 10531 10532 10540 10547 10544 10542 10541 10539 10538 10536 10533 10527 10520 10516 10513 10507 10503 10498 10492
10487 10499 10502 10510 10522 10532 10539 10540 10541 10545 10548 10544 10545 10547 10546 10544 10538 10538 10535 10531 10529 10532 10527 10519 10519 10519 10520 10523 10527 10527 10527 10526 10524 10521 10518 10516 10512 10507 10503 10497 10492 10487 10480 10472
10473 10481 10485 10489 10518 10520 10524 10526 10529 10533 10535 10534 10536 10538 10540 10541 10537 10530 10527 10527 10525 10524 10520 10515 10512 10511 10511 10511 10512 10512 10512 10511 10508 10506 10502 10499 10495 10492 10486 10480 10474 10468 10463 10456
10459 10462 10458 10501 10502 10504 10512 10516 10517 10522 10524 10523 10526 10527 10530 10534 10534 10528 10521 10517 10517 10516 10514 10511 10507 10504 10502 10500 10497 10496 10496 10495 10493 10491 10487 10482 10478 10473 10467 10461 10455 10449 10444 10438
10437 10448 10462 10477 10490 10488 10495 10506 10507 10508 10511 10512 10515 10519 10521 10518 10518 10521 10518 10515 10511 10509 10507 10504 10501 10497 10494 10492 10490 10486 10483 10479 10476 10472 10469 10465 10461 10456 10451 10445 10439 10433 10427 10422
10418 10434 10451 10468 10471 10468 10476 10496 10492 10494 10497 10502 10505 10511 10508 10511 10509 10510 10508 10505 10502 10500 10497 10494 10493 10490 10487 10483 10480 10476 10473 10469 10463 10459 10453 10448 10442 10437 10431 10425 10419 10415 10412 10408
10396 10418 10442 10451 10449 10448 10461 10485 10475 10475 10484 10492 10496 10501 10496 10498 10498 10500 10501 10499 10496 10492 10488 10485 10482 10479 10475 10472 10468 10465 10460 10454 10449 10444 10438 10431 10426 10420 10414 10408 10404 10400 10395 10389
10379 10400 10420 10425 10430 10435 10456 10454 10455 10463 10475 10480 10486 10487 10485 10487 10486 10486 10486 10484 10482 10479 10476 10473 10470 10466 10462 10459 10456 10451 10446 10441 10435 10429 10423 10417 10411 10404 10397 10392 10388 10382 10377 10370
10370 10387 10404 10406 10419 10426 10434 10441 10443 10455 10458 10467 10474 10475 10474 10474 10474 10477 10474 10471 10470 10466 10464 10462 10458 10454 10450 10446 10442 10437 10431 10425 10422 10417 10410 10402 10396 10389 10382 10376 10368 10362 10359 10352
10366 10373 10381 10387 10401 10408 10413 10421 10431 10442 10448 10456 10460 10461 10460 10459 10465 10466 10460 10459 10457 10454 10452 10450 10446 10441 10437 10432 10427 10421 10416 10410 10406 10401 10394 10386 10380 10374 10367 10360 10352 10344 10337 10332
10357 10360 10369 10384 10390 10397 10399 10407 10418 10424 10434 10439 10444 10446 10445 10445 10452 10451 10449 10447 10444 10440 10439 10437 10432 10426 10421 10416 10411 10405 10398 10393 10389 10383 10377 10369 10362 10356 10349 10342 10335 10328 10319 10309
10336 10347 10364 10372 10377 10386 10389 10396 10403 10409 10416 10423 10432 10431 10433 10433 10435 10438 10437 10434 10430 10425 10424 10421 10416 10411 10406 10401 10395 10388 10381 10376 10371 10363 10358 10350 10342 10336 10329 10322 10315 10307 10296 10284
10336 10346 10355 10360 10366 10374 10379 10380 10385 10397 10408 10411 10418 10422 10422 10423 10423 10424 10422 10419 10415 10411 10407 10403 10398 10394 10390 10385 10379 10371 10365 10358 10352 10347 10338 10331 10323 10315 10306 10297 10289 10280 10270 10258
10329 10340 10347 10351 10357 10365 10371 10376 10381 10388 10394 10398 10405 10412 10410 10408 10408 10407 10408 10404 10401 10395 10390 10386 10380 10376 10372 10367 10361 10354 10347 10340 10332 10326 10320 10310 10301 10292 10282 10274 10265 10254 10244 10233
10321 10330 10337 10343 10349 10357 10363 10366 10369 10374 10380 10384 10391 10394 10393 10393 10392 10392 10391 10389 10384 10379 10374 10368 10362 10357 10352 10348 10340 10334 10327 10319 10312 10304 10295 10287 10278 10270 10262 10252 10240 10229 10215 10201
10317 10325 10329 10333 10339 10347 10353 10354 10356 10360 10367 10371 10375 10375 10376 10376 10375 10374 10374 10371 10366 10361 10356 10350 10345 10339 10332 10326 10320 10313 10306 10298 10289 10282 10274 10265 10254 10245 10234 10222 10209 10195 10185 10176
10306 10313 10317 10322 10331 10334 10338 10342 10346 10349 10353 10359 10360 10361 10361 10361 10359 10358 10354 10350 10345 10342 10338 10332 10325 10319 10311 10306 10299 10292 10284 10275 10266 10258 10248 10238 10229 10220 10205 10191 10182 10170 10161 10148
10296 10302 10307 10314 10321 10325 10328 10332 10335 10337 10339 10342 10344 10344 10343 10342 10340 10338 10334 10330 10324 10320 10316 10310 10305 10297 10291 10284 10276 10268 10261 10252 10243 10234 10224 10215 10203 10187 10176 10166 10157 10145 10132 10122
10288 10293 10299 10305 10311 10314 10317 10320 10322 10324 10324 10325 10325 10324 10324 10321 10319 10316 10313 10309 10305 10299 10294 10289 10284 10277 10270 10262 10255 10247 10239 10231 10222 10212 10198 10184 10174 10163 10153 10143 10129 10118 10109 10096
10280 10285 10290 10294 10298 10301 10304 10306 10307 10308 10307 10307 10306 10306 10304 10302 10299 10296 10293 10288 10284 10279 10273 10268 10262 10255 10249 10241 10233 10225 10216 10205 10193 10180 10168 10160 10149 10138 10126 10115 10105 10093 10081 10068
10271 10274 10278 10282 10286 10288 10290 10291 10291 10292 10291 10291 10289 10288 10285 10282 10279 10276 10271 10266 10260 10255 10250 10243 10238 10231 10225 10216 10206 10196 10186 10176 10166 10156 10145 10132 10120 10110 10098 10086 10076 10065 10052 10038
10259 10262 10266 10269 10271 10273 10273 10274 10274 10274 10273 10271 10270 10268 10265 10262 10258 10253 10248 10242 10236 10230 10224 10217 10210 10203 10195 10187 10177 10167 10157 10147 10136 10125 10114 10103 10092 10082 10070 10059 10047 10034 10021 10006
10248 10250 10252 10254 10254 10255 10256 10256 10256 10255 10253 10252 10250 10247 10243 10238 10233 10228 10224 10218 10211 10205 10198 10190 10181 10173 10165 10156 10145 10135 10126 10116 10105 10095 10085 10074 10063 10052 10040 10028 10015 10001 9988 9974
10234 10236 10236 10236 10236 10237 10237 10237 10236 10234 10232 10229 10226 10223 10219 10214 10209 10204 10199 10193 10185 10178 10170 10161 10152 10144 10134 10125 10116 10105 10095 10086 10077 10066 10054 10043 10032 10020 10008 9995 9983 9970 9957 9945
10220 10220 10220 10220 10219 10218 10217 10216 10214 10212 10210 10206 10203 10198 10193 10188 10183 10178 10173 10166 10157 10149 10140 10132 10123 10113 10103 10095 10087 10076 10067 10057 10046 10034 10023 10011 9999 9987 9974 9963 9953 9942 9930 9919
10204 10203 10201 10200 10199 10198 10196 10194 10190 10187 10184 10180 10177 10173 10168 10162 10156 10150 10142 10135 10128 10120 10113 10103 10093 10083 10073 10064 10054 10045 10035 10026 10016 10004 9993 9981 9969 9958 9947 9936 9926 9916 9906 9895
10185 10183 10181 10178 10176 10173 10171 10169 10165 10161 10156 10152 10147 10142 10138 10132 10125 10119 10112 10104 10095 10087 10081 10073 10066 10057 10047 10036 10026 10014 10003 9993 9983 9973 9962 9951 9941 9931 9921 9912 9902 9892 9882 9871